Showing default

ION SCV-015, 58469

Orbit data source: Space-Track

ION SCV-015, 58469 is a payload satellite owned by D-ORBIT (IT) in SSO that was launched on Fri, 01 Dec 2023 UTC via an FALCON 9 launch vehicle from the Air Force Western Test Range (AFWTR). Payload-class satellites include a variety of spacecraft equipped with specific instruments for various scientific and technological missions. These include communications satellites like Starlink; space stations such as the ISS; scientific satellites like the Hubble; Earth observation satellites from companies like Planet Labs, Umbra, and HawkEye 360; GPS; miniature CubeSats for education and research; and military/defense satellites.

Loading next visibility...
Identifier
58469, 2023-185H
Orbit
SSO
Country
Flag of ITIT
Related business
Manufacturer
D-ORBIT
Mission
Operational Commercial Technology
Bus & Motor
ION-SC, PM200
Mass
220 kg wet, 150 kg dry
Launch date (UTC)
2023-12-01 (3 years ago)
Launch vehicle
FALCON 9
Launch site
Air Force Western Test Range (AFWTR)
Object type
Payload
Rocket body
Debris
Shape & HBR
Box, 2.0 m
Radar Cross Section
0.240 m², Large (>1 m²)

Expand to show TLE details & history
Last TLE update: 21 hours ago

TLE from 21 hours ago
0 ION SCV-015
1 58469U 23185H   26207.61763913  .00006847  00000-0  21393-3 0  9990
2 58469  97.5766 297.3190 0007792 327.1981  32.8776 15.33487213147126
Epoch: 2026-07-26T14:49Z
TLE epoch observation values (Epoch: 2026-07-26T14:49:24.020Z)
Latitude
-0.00008°
Longitude
130.65594°
Altitude
464.043 km
Speed
7.637 km/s
True Right ascension
19h 49m 16s
True Declination
0° 00' 00"
Sunlit
Object was in full shadow at epoch
Visualization orbit readout
Latitude
Unknown
Longitude
Unknown
Altitude
Unknown
Speed
Unknown
Apparent Right ascension
Unknown
Apparent Declination
Unknown
Sunlit
N/A
Visualization observer readout
Local Sidereal Time
01:11:58
Azimuth
Unknown
Elevation
Unknown
Doppler factor
Unknown
Orbital elements
Apogee altitude
467.703 km
Perigee altitude
457.043 km
Semi-major axis
6,840.51 km
Eccentricity
0.00078
Inclination
97.5766°
RAAN
297.319°
Arg. of periapsis
327.1981°
True anomaly
32.92611°
Mean anomaly
32.8776°
Eccentric anomaly
32.90185°
Mean motion
3.83628 °/min
Orbital period
93.84 mins
BSTAR
0.00021393
Loading maneuver chart data...
Computing Atmospheric mass density...
Loading historical data...
Loading historical data...
Loading historical data...
Loading historical data...
Loading historical data...
Loading historical data...
Loading historical data...

Documentation

Showing up to 5 results
|